User: anonymous   Login
Location: Gallinara
(44.0333°N, 8.2333°E)
Time: 05:04:36
(UTC+00:00)
Language:

Cosmos 2360 Rocket - Orbit

View from above orbital plane
View from above orbital plane
View from above satellite
View from above satellite

Ground track
Ground track

The orbit data is extracted from the following two-line orbital elements,

1 25407U 98045B   20339.53912859  .00000279  00000-0  16630-3 0  9990
2 25407  71.0119 260.1446 0005377  68.1092 292.0602 14.15831181155421
Epoch (UTC): 04 December 2020 12:56:20
Eccentricity: 0.0005377
inclination: 71.0119°
perigee height: 835 km
apogee height: 843 km
right ascension of ascending node: 260.1446°
argument of perigee: 68.1092°
revolutions per day: 14.15831181
mean anomaly at epoch: 292.0602°
orbit number at epoch: 15542

The dashed part of the orbit path shows where the satellite is in the earth's shadow,  

DLR